Location: Binningen
(47.7924°N, 8.7261°E)
Time: 18:24:19
(UTC+00:00)

Cosmos 1782 Rocket - Pass Details

Date: 17 May 2021
Orbit: 606 x 633 km, 82.5° (Epoch: 20 June)

Event Time Altitude Azimuth Distance (km) Brightness Sun altitude
Rises 22:14:04 0° 352° (N) 2,924 8.5 -21.0°
Reaches altitude 10° 22:16:20 10° 354° (N) 2,008 7.3 -21.1°
Maximum altitude 22:20:46 73° 79° (E) 653 3.5 -21.3°
Enters shadow 22:21:29 59° 139° (SE) 719 3.5 -21.3°
